RH
48 48 48 46 45 46 49 52 53 52 49 45 43 42 45 50 52 53 52 52 54 56 57 58 58 60 60 59 58 57 56 55 55 56 56 57 58 58 59 60 62 66 73 83 91 96 94 89 80 70 62 60 60 62 64 66 68 70 70 70 70 72 74 80 84 85 80 66 50 34 20 12 8 6 6 8 9 10 12 12 12 12 12 11 10 10
50 51 52 49 48 48 51 55 57 57 56 55 54 54 54 57 57 55 52 52 54 57 60 60 61 61 61 58 57 55 54 54 55 56 57 58 58 58 59 60 63 68 74 85 92 93 92 86 76 67 62 61 62 64 66 68 70 71 71 70 71 74 78 84 86 84 76 60 43 27 15 10 7 6 7 8 10 12 12 13 13 12 11 10 10 10
54 55 55 52 50 50 53 58 60 61 61 62 62 63 66 67 64 58 52 52 55 60 62 62 63 62 62 59 56 55 54 55 56 57 58 58 58 58 60 61 63 68 75 85 90 90 90 84 76 67 63 63 64 66 69 70 72 72 72 71 73 76 82 86 87 82 70 52 35 21 12 8 7 7 8 10 11 12 13 13 12 12 11 10 10 10
58 58 58 55 52 52 54 58 61 62 63 64 66 69 72 73 69 62 54 52 56 60 64 64 64 63 62 60 57 55 54 55 56 57 57 58 58 60 61 62 64 68 75 84 89 90 90 83 75 68 64 65 66 69 71 72 73 73 72 73 76 80 85 88 86 78 63 44 28 16 9 7 7 8 10 11 12 13 14 13 12 11 10 10 10 11
62 61 60 57 55 54 56 59 61 63 63 64 66 70 75 75 71 64 56 54 56 60 65 66 66 64 64 62 59 57 56 56 56 56 57 58 60 62 63 63 65 68 76 84 90 92 92 85 76 69 66 67 69 72 74 74 74 73 73 74 78 83 88 89 84 72 54 36 22 12 8 7 8 9 11 12 13 14 14 13 12 11 10 10 11 12
63 62 60 58 57 56 57 60 63 64 63 62 64 68 74 76 74 67 60 56 58 62 67 68 68 66 65 64 61 60 58 57 56 57 58 60 63 65 67 66 67 71 78 87 92 94 93 85 77 70 68 70 72 74 76 76 74 74 74 77 81 86 90 89 80 66 45 28 17 10 7 8 8 10 12 13 14 14 13 12 12 11 10 11 12 13
63 61 60 58 58 58 58 60 63 64 63 62 64 69 75 78 77 73 65 62 64 68 72 74 72 68 66 65 64 62 60 58 58 58 60 64 67 70 70 70 71 76 83 90 94 95 92 84 76 72 71 73 75 76 77 76 76 76 77 80 84 88 90 86 74 57 37 22 13 8 7 8 10 11 13 14 14 14 13 12 11 11 10 12 13 14
63 60 57 57 58 58 58 60 61 63 64 64 67 72 78 82 82 79 73 69 70 74 77 79 76 72 69 68 67 65 63 62 61 62 64 68 71 73 73 74 76 80 88 92 95 94 90 83 77 74 73 76 77 78 78 77 77 77 80 83 87 89 90 82 67 48 28 16 10 8 8 10 11 12 14 14 14 13 12 12 11 11 11 12 14 16
64 59 54 54 56 58 61 60 60 62 64 66 70 76 82 87 89 87 81 76 76 78 82 84 82 78 74 72 71 69 68 66 66 66 68 72 74 76 76 76 80 85 90 93 94 93 89 82 78 76 76 77 79 80 79 78 78 80 82 86 88 89 88 76 58 38 20 12 9 8 9 10 12 13 14 14 14 13 12 11 11 11 12 14 16 17
68 61 55 52 54 58 62 62 62 63 66 69 74 80 87 92 95 94 90 83 80 80 82 85 86 84 80 78 76 74 72 71 70 71 73 76 77 78 78 80 83 88 92 93 94 92 88 82 78 77 78 79 80 80 80 79 80 82 85 87 89 88 83 66 47 28 15 10 8 9 10 12 13 14 14 14 13 12 12 11 11 12 13 15 17 18
74 68 60 56 54 56 61 64 65 66 68 73 79 84 89 92 94 96 96 90 84 81 81 86 88 89 88 85 81 78 76 76 75 76 77 79 80 80 82 84 87 90 93 94 94 91 86 82 80 79 80 81 81 81 80 81 82 84 87 88 88 84 74 55 36 20 11 9 9 10 12 13 14 14 14 14 13 12 11 11 12 13 14 16 18 20
78 76 70 64 60 59 60 65 67 69 72 76 80 84 84 84 86 90 94 92 90 88 88 90 92 92 90 89 86 83 80 80 80 80 80 80 80 81 84 88 92 93 94 94 92 89 84 82 80 80 81 82 82 82 82 82 84 86 88 88 86 78 64 43 26 14 9 9 10 11 12 14 14 14 14 14 12 12 11 12 12 14 16 18 20 21
76 76 74 71 67 64 62 65 69 73 74 78 80 81 79 78 81 85 90 94 96 96 96 96 95 92 88 88 87 86 84 83 82 81 80 80 82 84 88 92 94 94 94 93 91 88 84 82 81 80 81 82 82 82 83 85 86 88 88 87 82 70 52 32 19 11 9 10 11 12 14 14 14 14 14 13 12 12 12 12 13 15 17 19 20 22
70 70 70 70 70 68 66 66 68 72 76 80 82 81 78 78 80 82 88 95 98 99 99 98 96 93 89 86 86 85 86 84 82 81 81 85 89 92 93 94 94 94 93 92 90 87 83 82 81 81 82 82 83 84 85 87 88 88 88 84 74 59 39 24 14 10 10 11 12 13 14 15 15 14 14 13 12 12 12 13 14 16 18 20 22 24
71 70 69 69 69 69 68 66 67 71 77 84 88 87 82 79 78 81 87 94 98 99 99 98 97 95 92 90 89 87 86 83 82 83 88 92 95 95 94 93 93 92 92 91 89 86 83 82 82 82 82 84 85 86 88 89 88 88 86 79 64 46 27 16 11 10 10 12 13 14 15 15 14 14 13 12 12 12 13 14 16 17 19 21 23 24
76 74 73 75 76 76 74 73 74 77 82 89 92 91 85 80 79 80 85 92 96 98 99 98 98 97 95 93 91 89 86 82 82 87 95 97 96 94 90 90 91 92 92 90 89 86 83 82 82 83 84 85 87 88 89 89 88 86 82 70 53 34 18 12 10 10 12 13 14 14 15 15 14 14 13 12 12 13 14 15 17 18 20 22 24 26
79 78 79 82 84 86 84 84 85 88 90 92 94 92 86 82 80 80 83 88 93 98 98 98 98 98 96 94 92 88 84 82 86 92 98 98 94 89 85 88 92 94 92 90 87 84 82 82 82 83 85 87 88 89 89 88 86 83 76 59 40 24 12 10 10 11 13 14 14 15 15 15 14 13 12 12 13 14 15 16 18 20 21 23 24 27
80 79 80 83 86 87 88 90 91 92 92 93 93 91 87 84 82 83 86 90 94 98 99 98 98 97 96 96 93 89 83 84 90 96 98 95 90 86 84 88 92 93 92 89 85 82 81 82 82 84 86 88 89 89 88 86 84 78 66 46 29 16 10 10 11 12 14 14 15 15 15 14 13 12 12 12 13 15 16 18 19 21 22 24 26 27
83 83 83 85 87 88 88 89 90 92 93 94 93 92 90 88 86 86 88 92 96 98 98 98 97 97 96 97 94 90 85 86 92 96 96 92 87 84 86 90 92 92 90 86 83 81 81 82 83 85 88 89 89 88 86 84 79 70 54 35 21 12 10 11 12 14 14 15 16 16 15 14 13 12 12 13 14 16 18 19 20 21 23 24 26 28
90 89 88 88 88 88 88 88 90 92 92 93 93 92 92 91 90 91 92 94 96 97 97 96 96 96 97 97 95 92 88 89 93 95 93 88 85 85 89 90 91 90 86 83 82 82 82 83 85 87 89 90 88 86 84 81 73 60 42 26 15 10 10 12 13 14 15 16 16 16 14 13 12 12 12 14 15 17 18 20 21 22 23 25 27 29
96 94 92 89 88 88 90 90 91 92 92 92 92 92 93 93 92 92 94 96 96 96 95 92 92 92 96 96 95 92 88 90 94 94 90 86 86 87 89 88 87 84 82 82 82 82 82 84 87 89 90 90 87 84 82 76 64 48 30 18 12 10 11 13 14 15 16 16 16 15 14 12 12 12 13 15 16 18 19 20 21 23 24 26 28 31
98 96 92 88 87 87 88 88 90 90 90 90 90 92 94 93 93 94 96 97 96 96 95 90 89 90 94 96 94 92 89 92 94 94 91 89 89 90 88 86 83 82 82 82 82 82 83 86 89 90 91 89 86 82 78 68 53 36 21 13 10 10 12 14 15 16 17 16 16 14 13 12 12 12 14 16 17 19 20 21 22 24 26 28 30 33
90 88 84 83 83 84 84 84 86 88 90 90 92 94 93 92 94 95 98 97 96 95 93 90 90 92 95 96 95 94 93 95 96 95 94 93 92 90 88 84 82 82 82 82 82 83 85 88 90 91 90 87 83 78 72 58 42 26 14 10 10 12 14 16 16 17 17 16 15 14 12 12 12 14 15 16 18 19 20 22 24 25 27 30 33 36
88 86 84 84 84 85 85 84 86 89 92 92 93 94 94 94 95 97 98 97 97 96 95 93 93 94 95 96 96 96 96 95 94 94 94 94 93 91 87 84 82 82 82 82 83 85 88 90 91 90 88 85 80 74 64 47 32 19 10 10 10 13 16 17 18 18 18 16 15 13 12 12 13 14 16 17 19 20 22 23 25 27 30 32 36 38
88 88 87 87 87 88 90 89 89 90 94 94 94 96 97 97 97 97 97 97 97 98 97 96 96 96 96 96 96 96 94 93 92 92 94 94 93 90 86 83 82 82 83 83 85 87 90 92 91 90 87 83 76 67 53 37 24 14 9 10 12 15 17 18 19 18 17 16 14 13 12 13 14 15 17 18 20 22 23 25 27 30 32 35 38 42
88 88 89 89 89 90 92 92 92 93 94 95 95 96 97 97 97 96 97 98 98 98 98 97 97 97 96 95 95 95 94 93 94 94 95 95 92 89 84 82 82 83 85 86 88 90 92 92 90 88 85 79 70 58 42 27 17 10 8 10 14 17 19 19 19 18 16 14 13 12 12 14 15 16 18 20 22 24 26 28 30 32 36 38 42 44
89 90 90 90 90 90 90 92 94 95 95 96 96 96 96 95 94 94 96 98 98 98 98 98 98 98 96 96 96 96 95 95 96 96 95 93 90 87 82 81 82 84 87 89 90 92 92 92 90 86 82 74 61 46 30 20 12 9 9 12 16 19 20 20 18 17 15 14 13 13 13 14 16 18 20 22 24 26 28 30 33 36 39 42 44 47
90 90 89 90 90 90 90 92 94 96 96 96 96 96 96 94 93 94 97 98 98 97 98 98 98 98 97 96 96 96 95 96 96 95 93 90 87 84 81 81 82 86 89 92 92 92 92 91 88 83 76 64 50 34 21 14 10 8 11 15 18 20 20 19 18 16 14 13 13 13 14 16 18 20 22 24 26 28 30 33 36 39 42 44 47 49
88 87 86 89 91 92 92 92 94 96 96 96 96 96 96 94 94 95 97 97 96 96 98 98 98 98 97 97 97 96 96 96 94 92 90 87 84 82 81 82 85 88 92 94 94 93 92 90 85 78 68 53 38 24 14 10 8 10 14 18 20 21 20 18 17 15 14 13 14 14 16 18 20 22 24 26 28 30 33 36 39 42 44 46 49 51
83 85 87 90 93 94 92 92 93 94 94 94 94 95 96 96 95 95 96 96 95 96 97 97 97 97 97 97 97 97 96 95 92 89 86 84 83 83 82 85 88 90 93 95 95 94 92 88 81 70 56 40 26 16 8 8 9 12 18 20 21 21 19 18 16 14 14 14 14 16 17 19 21 24 26 28 30 33 36 39 42 44 46 48 50 52
83 87 91 94 94 94 93 92 92 92 93 94 94 96 96 96 95 94 94 95 95 96 96 96 96 97 97 97 98 98 96 94 90 86 83 84 84 84 85 88 91 92 94 96 96 93 89 83 74 61 44 29 17 10 6 8 11 16 20 22 22 20 18 16 15 14 14 14 16 17 19 21 23 25 27 30 33 36 39 42 44 46 48 50 51 52
86 90 94 96 96 95 94 92 92 92 94 95 96 96 95 94 93 93 94 95 96 96 96 97 97 97 97 97 97 97 95 92 88 84 83 84 86 86 88 91 93 94 94 95 95 92 84 75 63 49 32 19 11 7 6 10 14 19 22 22 20 19 17 16 15 14 15 16 17 18 20 22 24 27 30 33 36 38 41 43 45 47 49 50 52 53
88 92 96 97 97 96 95 95 94 94 94 95 95 95 93 93 93 94 95 96 96 96 96 96 96 96 97 97 96 95 93 90 87 84 84 86 88 89 90 92 93 94 94 94 94 90 82 66 50 34 19 11 8 6 8 13 18 21 22 21 19 18 16 15 15 15 16 17 18 20 22 24 26 29 32 35 38 40 43 45 46 48 50 51 52 54
88 92 96 97 97 97 96 96 96 95 95 95 95 94 93 94 95 96 96 96 95 95 95 96 96 96 96 96 96 94 92 89 87 85 86 89 91 92 92 93 93 93 94 94 91 85 74 55 37 22 11 8 6 8 11 16 20 22 22 20 18 17 16 15 16 16 17 18 20 22 24 26 29 32 35 38 40 42 44 46 47 49 50 52 54 55
89 93 96 98 98 97 97 96 96 96 96 95 95 94 94 95 96 96 95 94 94 94 94 95 95 96 96 96 95 93 91 89 87 87 88 91 93 94 94 93 93 93 94 92 85 74 59 40 24 13 7 6 8 11 15 20 22 23 22 19 18 16 16 16 16 17 18 20 22 24 26 29 32 35 38 40 42 44 45 47 48 50 52 54 56 57
91 94 96 97 98 97 97 97 97 96 96 96 95 95 95 96 96 95 94 94 94 95 95 95 95 95 94 94 93 92 90 89 88 88 90 92 94 94 94 94 94 94 93 87 77 62 44 27 15 7 4 8 12 16 20 22 22 21 20 18 16 16 16 16 17 19 20 22 24 27 30 32 35 38 40 42 43 45 46 48 50 52 54 56 58 59
93 95 97 97 97 97 97 97 97 96 96 95 96 96 96 96 96 95 95 95 95 95 96 95 94 94 92 92 90 90 89 89 89 90 91 92 94 94 95 94 94 92 90 80 66 49 30 18 9 5 5 10 15 20 23 22 22 20 18 16 15 16 16 18 19 21 23 26 28 30 33 35 38 40 42 43 45 46 48 50 52 55 57 58 60 60
95 97 98 97 97 97 96 96 96 96 95 95 96 96 96 96 96 95 95 95 95 96 96 95 94 93 92 90 89 88 89 90 90 92 92 93 93 94 94 94 92 89 83 70 53 35 19 10 6 6 8 14 18 22 23 22 20 18 16 16 16 17 18 20 22 24 26 28 31 33 36 38 40 42 44 45 47 49 51 53 56 58 59 60 61 62
97 98 98 97 97 96 95 95 95 95 95 96 96 96 96 96 95 95 95 95 95 96 95 94 93 92 90 89 88 89 90 91 92 92 93 93 93 94 94 93 90 83 73 56 38 22 10 6 6 8 14 18 21 22 21 19 17 16 15 16 17 19 21 23 25 27 30 32 34 37 39 40 42 44 46 48 50 52 54 57 58 60 61 62 62 62
97 97 97 97 96 96 94 94 94 95 95 96 96 96 96 96 96 95 95 95 95 95 95 94 92 92 90 89 90 90 91 92 92 92 92 94 94 95 93 90 83 74 59 42 25 12 5 5 7 12 17 20 21 20 18 17 16 15 16 18 20 22 24 26 28 31 33 36 38 40 42 43 45 47 49 51 53 55 58 60 60 61 61 61 61 60
96 96 96 96 96 96 95 95 94 94 95 96 96 96 96 96 96 96 96 96 95 95 94 94 93 92 90 90 90 90 90 90 91 92 92 94 95 94 90 84 74 60 43 27 15 8 4 6 11 16 20 20 19 18 16 16 16 17 18 21 24 26 27 30 32 35 37 40 41 43 45 47 49 50 52 54 56 58 60 60 60 60 60 58 58 58
96 96 96 96 96 96 95 94 93 94 96 96 96 96 96 96 96 96 96 96 96 96 95 95 94 94 92 90 90 89 89 90 90 92 93 94 93 90 86 76 63 46 29 16 8 5 6 10 15 19 20 19 17 16 15 16 18 19 22 24 26 29 31 34 36 38 41 43 45 46 48 50 52 54 56 58 58 60 60 60 59 58 58 57 56 55
96 96 96 96 96 95 93 93 94 95 96 96 96 96 96 96 96 96 96 96 96 96 96 95 95 94 92 91 90 89 88 89 90 92 94 93 90 86 79 66 49 32 18 10 6 6 9 14 18 20 18 16 15 15 16 18 21 23 25 27 30 33 36 39 40 42 44 47 49 51 52 54 55 56 57 58 58 59 59 58 58 57 56 56 55 54
96 96 96 96 95 94 93 94 95 96 96 96 96 96 95 95 96 96 96 96 96 96 96 95 94 94 92 92 90 89 88 88 90 92 94 91 87 80 69 52 34 20 10 7 7 10 14 17 19 18 16 15 15 16 19 22 24 26 28 31 34 37 41 43 45 46 48 50 52 54 55 56 56 56 56 56 57 58 58 58 58 57 56 55 54 54
96 96 96 96 95 95 95 96 96 96 96 96 96 96 95 95 95 95 95 96 96 96 96 96 95 95 94 93 90 89 87 88 90 91 92 88 81 71 56 38 22 11 5 6 8 13 18 19 18 16 14 15 17 19 22 24 27 30 32 35 38 40 43 44 46 49 52 54 55 56 56 56 56 55 55 56 57 58 58 59 59 58 58 56 55 55
97 97 97 96 96 96 96 96 96 96 96 96 96 96 95 95 94 94 94 95 96 96 96 96 96 96 96 94 92 89 87 89 90 92 90 83 73 58 41 24 13 6 4 8 11 16 19 18 17 15 15 17 20 23 26 28 30 34 36 38 40 43 45 46 48 50 52 54 56 56 56 55 54 54 54 55 56 58 60 61 62 61 60 58 58 56
96 96 96 96 96 96 96 96 96 96 96 96 96 95 94 93 93 94 94 95 96 96 96 96 96 96 95 93 91 89 88 91 93 92 86 75 61 46 29 15 8 4 6 11 15 18 18 16 16 16 18 21 24 26 28 31 34 36 39 41 43 45 47 49 50 50 51 53 54 55 55 55 55 55 55 56 58 60 63 65 65 65 64 62 60 59
96 96 96 96 96 96 97 96 96 96 96 96 96 94 93 92 93 94 95 96 96 96 96 95 95 95 94 92 90 89 90 93 93 89 81 65 48 32 18 9 6 6 10 15 18 18 16 16 16 19 22 24 27 30 32 34 36 38 40 42 44 45 48 49 50 50 51 52 54 54 56 57 58 58 58 58 60 63 66 68 70 70 69 66 64 62
96 96 96 95 96 96 96 96 96 96 97 96 95 94 92 93 94 95 96 96 96 95 95 95 95 94 92 90 88 89 92 94 90 82 70 50 33 19 10 6 7 10 15 17 17 16 15 17 20 22 26 28 30 32 35 37 38 40 41 42 43 44 46 48 49 50 51 52 54 56 58 60 60 61 62 62 63 65 68 71 73 74 73 71 68 66
96 96 95 95 96 96 96 96 97 97 97 96 95 93 93 94 94 95 96 95 95 94 94 95 94 93 90 88 89 90 94 92 84 71 53 34 20 10 6 8 11 14 17 16 15 15 17 20 24 26 28 30 32 35 38 40 40 41 42 42 42 43 45 47 48 50 51 54 56 58 61 63 65 66 67 67 67 68 70 73 75 76 76 75 73 71
96 95 95 95 95 95 95 96 97 97 97 96 94 94 94 95 95 95 95 94 94 94 95 94 92 90 88 88 90 92 93 85 72 54 35 22 12 8 7 10 13 16 16 15 15 17 21 26 28 30 31 32 34 37 40 41 42 42 42 42 42 43 44 47 48 50 53 56 58 61 64 67 69 70 72 72 71 71 72 74 76 78 79 79 77 74
Wind_Speed
43 43 41 40 38 36 35 34 34 35 35 34 33 32 32 33 33 33 33 33 32 33 33 34 35 36 37 38 38 39 39 38 39 39 39 39 39 39 38 38 38 37 38 39 39 39 38 38 39 40 41 41 41 42 42 43 43 44 45 47 50 52 54 55 55 54 52 50 48 47 45 44 43 42 41 40 40 39 39 39 38 38 37 36 35 34
45 45 44 43 41 39 37 37 37 37 37 36 34 34 34 34 35 35 35 34 34 34 35 36 36 37 38 38 39 39 39 39 39 39 40 40 39 39 38 38 37 37 37 37 38 38 38 39 40 41 41 41 41 42 42 43 43 44 46 48 50 52 54 55 55 53 51 49 47 46 45 43 42 41 40 40 39 39 38 38 38 37 36 35 34 33
45 46 46 46 44 41 40 39 39 39 38 38 36 35 35 36 36 36 35 35 36 36 37 37 37 38 38 39 39 39 39 39 40 40 40 40 39 39 38 37 37 36 36 36 37 38 39 40 40 40 40 41 41 42 42 43 44 45 47 49 51 53 55 55 54 52 50 48 46 45 44 42 41 40 40 39 39 38 38 37 37 36 35 34 33 32
46 47 47 47 46 43 41 40 40 40 39 39 38 37 36 36 36 36 35 36 37 38 39 39 38 38 39 39 39 39 39 40 40 41 41 40 39 39 38 37 36 35 35 35 36 38 39 40 40 40 40 41 41 42 43 43 44 46 48 49 52 53 55 54 53 51 49 47 45 44 43 41 40 40 39 39 38 38 37 37 36 35 34 33 32 31
47 47 47 48 47 45 41 40 40 40 40 40 39 38 37 37 36 36 36 37 39 40 40 39 39 39 39 39 39 39 40 40 40 41 41 40 39 38 38 37 36 35 34 35 36 38 39 40 40 40 40 41 42 42 43 44 45 47 48 50 52 54 55 54 52 50 47 46 44 43 42 40 40 39 38 38 38 37 37 36 35 34 33 32 31 31
48 47 48 49 49 47 44 41 40 40 40 40 39 39 38 37 37 37 37 39 40 40 39 39 40 40 40 40 39 39 39 40 40 40 40 40 39 38 37 37 36 35 35 36 37 38 39 40 40 41 41 41 42 43 43 44 46 47 49 51 53 54 54 53 51 48 46 45 43 42 41 40 39 38 38 37 37 36 36 35 34 34 33 32 31 30
49 48 48 50 50 49 46 44 41 40 40 40 40 40 39 38 38 38 39 40 40 40 39 40 40 40 40 40 39 39 39 39 39 40 40 39 38 38 38 37 37 36 36 37 38 39 39 40 41 41 41 42 43 43 44 45 46 48 49 51 53 54 54 52 49 47 45 44 42 41 40 39 38 38 37 37 36 36 35 34 34 33 32 31 31 30
50 49 49 50 50 50 49 47 43 41 40 41 41 41 41 40 40 40 40 40 40 40 40 41 41 40 40 39 38 38 37 38 38 39 39 38 38 38 38 37 37 36 36 38 39 39 40 41 41 41 42 42 43 43 44 45 47 48 50 51 53 54 53 50 48 46 44 42 41 40 39 38 38 37 37 36 36 35 34 34 33 32 31 31 30 30
51 49 49 50 50 51 50 49 46 42 41 42 43 43 42 42 41 40 40 39 39 39 41 41 41 40 39 38 37 37 36 37 37 38 38 37 37 37 38 37 37 37 37 39 39 39 40 41 41 42 42 43 43 44 45 46 47 48 50 52 53 53 51 49 46 44 43 41 40 39 38 37 37 36 36 36 35 34 34 33 32 31 31 30 30 30
50 50 50 50 51 51 50 50 47 44 42 42 43 43 43 42 42 41 40 39 39 39 41 41 40 38 37 37 37 36 35 36 36 37 37 37 37 37 37 37 37 37 38 40 40 39 39 41 42 42 43 43 44 44 45 46 47 48 50 52 52 51 49 47 45 43 41 40 39 38 37 37 36 36 35 35 34 34 33 32 31 31 30 30 30 29
50 50 50 50 50 50 50 50 48 46 43 44 44 44 43 43 42 42 40 39 39 39 40 40 38 36 35 35 36 35 35 35 35 36 36 36 37 37 37 37 36 37 39 40 39 39 40 41 42 43 43 43 44 44 45 46 47 48 50 51 51 50 47 45 43 41 40 39 38 37 36 36 35 35 35 34 34 33 32 32 31 30 30 30 29 29
51 51 51 50 49 49 49 49 49 47 45 45 45 45 44 44 43 42 41 40 40 40 40 39 38 36 35 34 34 35 35 35 35 35 36 37 37 38 37 36 36 36 38 39 39 39 40 42 42 43 43 43 44 45 45 46 47 48 50 50 50 48 46 43 42 40 38 37 36 36 35 35 35 34 34 34 33 33 32 31 30 30 29 29 29 28
52 52 52 52 50 49 48 48 49 48 47 45 44 43 43 43 43 42 42 42 42 42 40 40 38 36 35 34 34 35 35 35 35 36 37 37 38 38 37 36 35 36 37 38 39 40 41 42 43 43 43 44 44 44 45 46 47 48 49 49 48 46 44 42 40 38 37 36 35 35 34 34 34 34 33 33 32 32 31 30 30 30 29 29 29 28
51 52 52 53 52 52 51 49 49 49 48 46 43 42 43 43 43 44 43 43 43 42 41 39 38 36 35 35 35 35 35 36 36 36 37 37 37 36 36 36 36 36 37 38 39 40 41 42 43 43 43 44 44 44 45 45 46 48 48 47 46 44 42 40 39 37 36 35 34 34 34 33 33 33 33 32 32 31 30 30 29 29 29 29 28 28
51 52 52 53 53 54 53 52 51 50 49 47 44 43 44 45 45 45 44 42 41 40 40 38 37 35 35 36 35 35 35 36 36 36 36 35 36 36 37 36 36 36 37 38 39 40 41 42 42 42 43 43 44 44 44 45 46 47 46 45 44 42 40 39 37 35 34 34 33 33 33 33 32 32 32 31 31 30 30 29 29 29 28 28 28 28
50 52 53 54 54 55 55 54 53 52 50 48 45 45 45 46 47 47 45 43 41 40 39 37 36 36 38 38 37 35 35 35 35 35 35 35 36 37 38 37 37 37 37 37 38 39 41 41 42 42 43 43 43 43 44 44 45 45 44 43 41 40 39 37 35 34 33 33 33 32 32 32 32 32 31 30 30 29 29 28 28 28 28 28 28 28
49 52 53 54 54 55 55 55 54 53 51 49 47 47 47 48 49 48 46 44 43 41 39 37 35 36 39 40 38 36 35 35 35 35 35 36 38 39 39 38 37 37 37 37 37 39 40 41 41 42 42 42 42 43 43 44 44 44 42 41 39 38 37 35 34 33 32 32 32 32 32 31 31 31 30 30 29 28 28 28 27 28 28 28 28 28
51 52 53 53 53 54 54 54 54 53 52 51 50 49 50 50 51 50 47 45 44 42 40 36 35 36 39 40 38 36 35 35 35 35 37 39 40 41 40 39 38 37 36 36 38 39 40 40 41 41 41 42 42 42 43 43 43 42 40 39 38 36 35 34 33 32 32 32 31 31 31 31 31 30 29 29 28 27 27 27 27 27 27 27 27 28
52 53 53 53 53 53 54 54 54 53 53 52 52 51 51 51 51 50 48 46 43 41 39 37 36 38 41 40 38 36 36 36 36 37 39 39 39 39 38 37 36 35 35 37 38 39 39 40 40 41 41 41 42 42 43 43 42 40 38 37 36 35 34 33 32 31 31 31 31 31 31 30 30 29 29 28 27 27 26 26 26 27 27 27 27 27
53 53 53 52 53 53 54 54 54 53 53 53 53 52 52 51 51 50 48 46 44 42 40 37 37 39 42 41 38 36 36 36 37 38 39 38 36 35 35 34 34 35 36 37 38 38 38 39 40 40 41 41 42 42 43 42 40 38 37 36 35 34 32 32 31 31 31 31 31 30 30 30 29 28 27 27 26 26 26 26 26 26 27 27 27 27
52 53 52 52 52 53 53 54 54 53 53 54 53 52 51 51 50 49 47 46 46 44 41 39 38 40 42 41 38 36 36 37 38 38 37 34 32 32 32 33 34 35 36 36 37 37 38 38 39 40 40 41 42 42 42 40 38 37 36 35 34 32 32 31 31 30 30 30 30 30 29 29 28 27 26 26 26 26 26 26 26 26 26 26 27 27
50 51 51 52 52 53 54 54 53 53 54 55 53 51 50 49 49 48 48 48 48 46 43 40 40 41 42 40 37 35 37 37 38 38 35 31 30 30 30 32 33 34 35 35 36 36 37 38 38 39 40 41 41 42 40 38 37 35 34 33 32 31 31 30 30 30 30 30 29 29 28 28 27 26 26 25 25 25 26 26 26 26 26 26 26 27
52 53 54 54 55 55 56 55 54 53 54 55 53 50 48 48 47 47 48 48 47 45 43 42 42 43 42 39 36 34 36 38 39 38 35 32 30 29 30 31 32 33 33 34 35 36 36 37 38 38 39 40 41 40 39 37 35 34 33 32 31 30 30 30 30 30 30 29 29 28 27 27 26 25 25 25 25 25 26 26 26 26 26 26 26 27
53 54 55 55 56 56 56 55 53 53 54 55 53 50 47 46 46 47 48 47 46 44 42 42 42 43 41 38 34 33 35 38 40 39 35 32 29 28 29 31 32 32 33 33 34 35 36 36 37 38 39 40 40 39 37 35 34 33 32 31 30 29 29 29 29 29 29 28 28 27 26 26 25 25 25 25 25 25 26 26 26 26 26 26 27 27
52 53 54 54 55 55 54 53 51 51 52 53 53 49 46 45 45 46 47 47 45 42 41 41 42 41 39 35 32 33 35 38 39 38 34 30 28 28 30 30 31 31 32 33 34 34 35 36 37 38 39 39 39 37 35 34 33 32 31 30 29 29 29 29 29 28 28 27 27 26 25 25 24 24 24 25 25 25 26 26 26 27 27 27 27 27
50 51 51 52 52 52 51 50 48 47 48 51 51 48 45 44 45 46 47 45 43 41 40 40 40 38 35 32 32 33 36 38 37 35 31 28 27 28 30 30 30 31 32 33 33 34 34 35 36 38 39 38 37 35 34 33 32 31 30 29 29 28 28 28 28 28 27 27 26 25 24 24 24 24 24 25 25 26 26 26 27 27 27 27 27 27
48 49 49 50 50 50 49 46 44 43 44 46 46 45 44 44 46 47 46 44 42 40 39 39 37 35 33 32 33 35 36 36 33 30 27 26 27 29 29 29 30 31 32 32 33 33 34 35 37 38 38 37 35 34 32 31 31 30 29 29 28 28 28 28 28 27 27 26 25 24 24 24 24 24 25 25 26 26 26 27 27 27 28 28 28 27
48 49 49 49 48 48 46 43 41 39 39 40 41 41 41 43 46 48 47 44 42 41 40 39 36 34 32 33 34 35 34 31 28 25 25 26 27 28 29 29 30 30 31 32 32 33 34 35 36 37 36 35 33 32 31 31 30 30 29 28 28 28 28 28 27 27 26 25 25 24 24 24 24 24 25 25 26 26 27 27 28 28 28 28 28 28
48 49 49 48 47 46 44 42 39 37 36 36 37 38 39 41 44 45 45 44 43 42 40 38 35 33 32 33 34 32 29 26 23 23 25 26 27 28 28 29 29 30 31 31 32 33 34 35 36 35 34 32 31 30 30 30 30 29 29 28 28 28 28 28 27 26 26 25 24 24 24 24 24 25 25 26 26 27 27 28 28 29 29 29 29 28
49 49 48 46 45 43 42 41 39 38 36 36 36 37 38 39 41 42 43 44 43 41 39 36 33 32 32 32 30 27 23 21 21 23 25 26 26 27 28 29 29 29 30 31 31 32 33 35 35 34 32 30 29 29 29 29 29 29 28 28 28 28 28 27 27 26 25 25 24 24 24 25 25 25 26 26 27 27 27 28 28 29 29 29 29 29
47 47 45 44 42 40 40 39 39 38 37 36 37 37 39 40 41 43 44 43 41 38 35 33 32 31 31 29 26 21 18 18 21 23 25 25 26 27 28 28 29 29 29 30 31 32 33 34 33 31 29 28 27 27 28 28 28 28 28 28 27 27 27 27 27 26 25 25 25 25 25 25 25 26 26 26 27 27 27 28 28 29 30 30 30 29
46 45 44 42 40 38 37 37 37 37 36 36 37 38 40 42 43 44 42 39 36 34 32 32 31 31 29 26 22 18 16 18 21 24 25 25 26 27 27 27 28 28 29 30 31 32 33 32 30 28 27 26 26 26 27 27 27 27 27 27 27 27 27 27 26 26 25 25 25 25 25 26 26 26 26 26 27 27 27 28 29 29 30 30 30 30
45 44 43 40 38 36 35 35 35 35 35 36 38 40 42 43 42 40 36 33 31 31 32 32 31 30 27 23 19 17 17 19 22 24 24 25 26 27 26 27 27 28 29 30 32 32 32 30 27 26 24 24 24 25 26 27 27 27 26 26 27 27 27 26 26 25 25 25 25 25 26 26 26 26 26 27 27 27 27 28 29 29 30 30 30 30
45 44 43 40 37 35 33 33 34 34 36 38 40 42 43 41 38 34 31 29 29 30 31 30 29 26 22 19 17 16 17 20 22 23 24 25 26 26 26 26 27 28 29 30 31 32 30 28 25 23 23 23 23 24 25 26 26 26 26 26 26 26 26 26 25 25 25 25 25 25 26 26 26 26 26 27 27 27 27 28 28 29 30 30 30 30
45 45 43 40 37 34 33 33 34 35 36 38 40 41 39 36 32 28 26 27 28 28 28 26 24 21 19 17 15 16 19 21 23 24 24 25 25 25 26 26 27 28 29 30 31 30 28 26 24 22 22 22 22 23 24 24 25 25 25 25 25 25 25 25 25 25 25 25 25 25 26 26 26 26 26 27 27 27 27 28 28 29 29 30 30 29
45 44 43 39 36 33 32 32 34 35 36 37 38 37 34 29 25 23 24 25 26 25 23 21 19 18 16 15 15 17 20 23 24 24 24 24 24 25 25 26 27 28 29 30 30 28 25 24 22 22 21 21 21 22 22 23 24 24 24 25 25 25 25 25 25 25 25 25 25 25 26 26 26 26 27 27 27 27 27 28 28 29 29 29 29 29
44 43 41 37 33 31 31 32 33 34 34 35 35 33 28 23 20 21 23 24 24 23 20 18 17 16 14 14 17 20 22 23 23 23 23 24 24 24 24 25 27 28 29 29 28 26 24 22 21 21 20 20 20 20 21 22 23 23 24 24 24 24 24 25 25 25 25 25 25 26 26 26 26 27 27 27 27 27 27 27 28 28 28 28 28 27
41 39 37 34 31 30 30 31 31 32 33 34 32 28 22 19 19 20 23 25 24 22 19 17 15 14 14 16 19 21 22 23 23 23 23 23 23 23 24 26 27 28 29 27 26 24 22 21 20 20 19 19 19 20 20 21 22 22 23 23 23 23 24 24 25 25 25 26 26 26 26 26 27 27 27 27 27 27 27 27 27 28 28 27 27 26
36 34 32 30 28 28 28 28 29 31 32 32 29 23 18 17 19 21 24 25 24 22 19 17 14 12 14 18 20 21 22 22 22 22 22 22 22 23 24 26 27 28 27 26 24 22 21 20 19 19 18 18 19 19 19 20 21 21 22 22 22 23 23 24 25 25 26 26 26 26 26 26 27 27 27 27 27 27 27 27 27 27 27 26 26 25
34 31 29 27 26 26 26 27 28 30 32 30 24 19 16 17 19 22 24 24 23 21 18 15 12 12 15 18 20 21 21 21 21 21 21 21 22 23 25 26 26 26 26 24 22 21 20 20 19 18 18 18 18 18 19 20 20 21 21 21 21 22 23 24 25 25 26 26 26 26 26 27 27 27 27 27 27 27 27 27 26 26 26 25 25 23
34 31 27 25 23 24 24 26 29 31 30 25 19 15 15 17 20 23 24 24 22 20 17 14 10 11 15 17 19 20 20 20 20 20 20 21 22 23 25 26 25 25 23 22 21 20 20 19 18 18 18 18 18 18 18 19 20 20 21 21 21 21 22 23 24 25 26 26 26 26 27 27 27 27 27 27 27 26 26 26 26 25 25 24 23 22
30 27 24 23 22 23 24 27 30 30 26 20 16 14 15 18 21 23 24 23 21 19 17 12 9 11 14 17 18 19 19 19 19 19 19 20 22 23 24 24 24 23 21 20 20 19 19 18 18 18 18 18 18 18 18 18 19 20 21 21 21 21 22 23 24 25 26 26 26 27 27 27 26 26 26 26 26 26 26 25 25 24 24 23 22 21
25 23 22 22 22 24 26 28 28 26 21 16 14 14 16 18 20 22 23 22 21 19 15 10 8 11 14 16 18 18 18 18 18 18 19 20 22 23 23 23 22 21 20 19 18 18 18 18 18 18 18 17 17 17 18 18 19 20 21 21 22 22 21 22 24 25 25 26 26 27 27 26 26 26 25 25 25 25 25 24 24 23 23 22 21 20
22 21 21 21 23 25 27 27 25 20 16 14 14 14 16 17 19 21 22 22 20 18 12 7 8 11 14 16 17 17 18 18 18 18 19 21 22 23 22 21 20 19 19 18 17 17 17 17 17 17 17 17 17 18 18 18 19 20 21 22 22 22 22 23 24 24 25 25 26 26 26 26 25 25 24 24 24 24 24 23 23 22 22 22 21 20
20 20 20 22 24 25 25 23 19 16 14 13 13 14 15 17 19 21 22 21 19 15 9 6 9 12 14 15 16 16 17 17 18 19 20 22 23 22 21 20 19 18 17 17 17 16 16 17 17 17 17 17 18 18 19 19 20 20 21 22 23 23 23 23 24 24 24 25 25 25 25 25 24 24 23 23 23 23 22 22 22 22 21 21 20 19
19 18 20 22 24 24 22 19 15 14 13 12 13 14 15 18 20 22 21 19 16 11 7 7 10 12 13 15 16 16 17 17 19 20 22 22 22 22 20 19 18 17 16 16 16 16 16 16 17 17 17 17 18 18 19 20 21 21 22 22 23 23 23 23 24 24 24 24 24 23 23 23 23 22 22 22 21 21 21 21 21 21 21 20 20 19
18 18 20 22 23 23 20 16 14 13 12 12 13 14 16 19 20 20 18 16 13 9 8 9 10 12 13 14 15 16 17 18 20 21 22 22 22 20 19 18 17 16 16 15 15 16 16 16 17 17 18 18 18 19 20 21 22 22 23 23 23 23 23 23 23 23 23 23 22 22 22 22 21 21 21 21 20 20 20 20 20 20 20 20 20 19
18 19 21 23 23 21 18 15 13 13 12 12 13 15 18 19 18 17 15 13 11 9 10 10 10 11 13 14 15 16 17 19 21 22 22 21 20 19 18 17 16 15 15 15 15 15 16 16 17 18 18 19 19 20 21 22 23 23 23 23 23 22 21 21 22 22 22 21 21 21 21 20 20 20 20 20 19 19 18 19 19 20 20 20 20 20
19 20 21 22 21 18 15 14 13 12 11 12 14 16 17 16 14 13 12 11 11 11 10 10 10 12 13 14 15 16 18 20 21 21 20 19 18 17 16 15 15 15 14 14 15 15 15 16 17 18 19 20 21 21 22 23 23 23 23 23 22 21 20 20 20 20 20 19 19 19 19 20 20 20 20 20 19 18 18 18 18 19 20 21 21 20
19 20 20 19 17 15 13 12 12 11 11 12 14 16 16 13 11 10 10 11 11 11 10 10 11 12 13 14 15 17 18 19 20 19 18 17 16 15 14 14 14 14 14 14 14 15 15 17 18 20 21 22 22 23 23 23 23 23 22 22 21 20 19 19 18 18 18 18 18 18 19 19 20 20 20 20 19 19 18 18 18 19 20 21 21 21
18 18 17 16 14 13 12 12 11 11 12 14 16 16 14 11 10 10 11 11 11 10 10 10 11 11 12 14 16 17 19 19 18 17 15 15 14 14 13 13 13 13 13 13 14 14 15 16 18 20 22 23 24 24 24 23 23 22 21 20 19 19 18 18 17 17 17 17 17 18 18 18 19 20 20 20 20 19 19 18 18 19 20 21 22 22
Wind_Direction
287 288 289 289 290 291 292 292 292 291 288 284 279 275 273 273 273 272 271 271 271 272 271 269 267 265 264 263 263 264 266 267 269 271 273 275 276 277 279 281 282 283 284 285 286 289 293 295 294 292 291 290 290 291 292 293 294 295 297 299 302 304 306 307 308 308 307 306 305 305 305 305 304 304 303 302 301 300 299 298 298 297 297 296 295 294
285 285 285 285 287 289 290 291 291 291 290 287 282 278 276 275 274 272 271 270 271 272 272 270 268 267 265 265 264 265 266 267 269 271 273 274 275 277 278 280 281 282 283 285 288 291 294 293 292 291 290 290 290 291 291 292 293 295 297 299 302 304 306 307 308 307 306 306 305 305 305 305 304 303 302 301 300 299 299 298 298 297 296 296 295 294
284 283 283 284 285 286 288 289 289 290 290 288 284 280 278 276 274 272 270 269 270 272 272 271 269 268 266 265 265 265 265 267 268 270 272 273 275 276 278 279 280 281 283 285 288 290 291 291 291 290 290 289 290 290 291 292 293 295 298 300 302 304 306 307 307 307 306 305 305 305 305 304 303 302 301 300 300 299 299 298 298 297 296 296 295 294
281 282 282 283 283 284 286 287 288 289 290 289 287 282 279 276 273 269 268 268 270 271 272 271 270 268 267 266 265 265 265 266 268 270 272 273 274 276 278 279 280 282 283 285 287 289 290 290 291 290 290 289 289 290 291 292 294 296 298 300 302 304 306 306 307 306 305 305 305 305 304 304 302 301 301 300 299 299 299 298 297 297 296 295 294 294
279 280 281 282 282 282 283 284 286 288 289 290 289 286 281 275 270 266 265 266 268 270 271 271 270 268 267 266 265 264 265 266 268 270 271 273 274 276 278 280 281 282 284 285 286 287 289 290 291 291 290 289 289 290 291 292 294 296 299 301 303 304 305 306 306 306 305 305 305 304 304 303 302 301 300 299 299 299 299 298 297 296 296 295 294 293
278 279 280 281 281 281 281 281 283 285 288 290 290 289 284 277 270 264 262 264 267 269 270 270 269 268 266 265 264 264 265 266 268 270 271 273 274 276 278 280 281 283 284 284 285 286 289 290 291 290 290 289 289 290 291 293 295 297 299 301 303 304 305 306 306 305 305 305 304 304 303 302 301 300 300 299 299 299 298 297 297 296 295 294 293 292
278 278 279 279 280 280 280 280 281 282 285 287 289 288 286 280 273 267 264 265 267 269 269 270 269 267 265 264 264 264 266 267 268 270 271 273 274 276 278 280 281 283 283 284 285 287 289 291 291 290 289 289 289 290 291 293 296 298 300 301 303 304 305 305 305 305 305 304 304 304 303 302 301 300 299 299 299 298 298 297 296 295 294 294 293 293
277 277 277 278 278 279 279 279 280 281 282 284 285 285 284 281 276 270 267 267 268 269 269 270 269 266 264 263 263 265 266 268 269 270 272 273 274 275 277 279 280 281 282 283 284 286 289 290 290 289 289 289 289 291 292 294 296 298 300 302 303 304 304 305 305 305 304 304 304 303 302 301 300 300 299 299 298 298 297 296 295 294 294 293 293 293
276 276 276 276 277 277 278 278 279 279 280 280 281 281 282 281 278 274 270 268 268 268 269 270 269 267 264 263 263 265 267 268 270 270 271 272 273 274 276 277 279 280 282 282 283 285 288 290 290 289 289 289 290 291 293 295 297 299 300 301 302 303 304 305 305 304 304 304 303 303 302 301 300 299 299 299 298 297 296 295 294 294 293 293 292 293
275 275 276 276 276 276 276 276 277 277 276 277 277 278 280 282 281 279 274 269 267 267 268 269 268 266 264 263 263 264 266 268 269 270 270 271 271 272 274 276 278 280 281 281 282 286 289 290 290 289 289 290 291 292 294 296 297 299 300 301 302 303 304 304 304 304 304 304 303 302 301 300 300 299 299 298 298 297 296 295 294 293 292 292 292 292
274 274 275 277 277 276 274 274 274 274 274 274 274 275 279 282 283 282 277 272 268 267 268 269 268 266 263 262 262 264 265 267 268 268 269 269 270 271 272 275 277 280 281 282 285 288 290 290 290 289 290 291 291 293 294 296 298 299 300 301 302 303 304 304 304 304 304 303 302 301 300 300 299 299 298 298 297 296 295 294 293 292 292 292 292 293
273 273 274 275 276 276 274 273 272 272 272 272 272 274 277 281 283 282 278 272 268 267 268 270 269 265 260 260 261 263 264 266 266 267 266 267 268 269 271 274 277 280 282 284 287 289 290 289 289 290 290 291 292 294 295 297 298 300 300 301 302 303 304 304 304 303 303 302 301 300 299 299 298 298 298 297 296 295 294 293 292 292 292 292 292 293
272 272 272 273 273 274 274 273 272 270 269 269 270 273 276 279 281 280 277 272 268 266 268 270 270 265 259 258 259 262 264 265 265 265 265 266 268 270 272 274 277 279 281 284 286 288 288 289 289 290 291 292 293 295 296 298 299 300 301 302 303 303 304 304 303 303 302 302 300 299 299 298 298 297 297 296 295 294 293 292 292 292 292 292 293 294
271 271 271 270 270 270 271 272 272 270 269 268 268 270 273 275 277 277 277 274 270 267 268 270 270 265 259 257 259 261 263 264 264 264 265 266 268 270 272 274 276 278 280 282 284 286 288 289 290 291 292 293 294 295 297 298 299 300 301 302 303 303 303 303 303 302 302 301 300 299 298 297 297 296 296 295 294 293 292 292 292 292 292 293 294 295
272 271 270 269 269 268 268 269 270 271 270 269 269 269 270 272 274 276 277 275 271 268 268 269 269 265 258 256 257 260 262 263 264 265 265 265 266 268 270 273 275 276 278 280 283 286 288 290 291 292 293 294 295 296 297 299 299 300 301 302 303 303 303 302 302 302 301 300 299 298 297 297 296 296 295 294 293 292 291 291 292 292 293 294 295 296
274 273 271 270 270 269 269 270 271 272 272 271 269 269 269 271 274 275 275 273 270 267 266 268 268 265 259 255 255 257 261 263 264 264 263 261 262 266 269 272 273 274 275 278 282 286 288 290 291 292 293 294 295 296 298 299 300 301 302 302 302 302 302 302 301 301 300 299 298 297 297 297 296 295 294 293 292 291 291 291 292 293 293 294 295 296
275 274 273 273 272 271 271 272 273 273 273 272 269 268 269 271 273 274 273 271 268 266 265 266 267 267 264 258 255 255 260 263 263 262 260 259 262 266 269 271 271 271 273 278 283 287 289 290 291 292 293 294 296 297 298 299 300 301 302 302 302 301 301 301 301 300 299 298 298 297 297 296 296 295 294 292 291 291 291 291 292 293 293 294 295 296
275 274 274 273 273 272 273 273 273 273 273 272 269 268 268 270 272 273 271 269 266 265 265 266 268 269 268 263 257 256 261 263 263 261 259 260 263 267 270 271 270 271 275 281 285 287 289 290 291 292 294 295 296 298 299 300 301 302 302 302 301 301 301 300 300 299 299 298 298 297 297 296 296 294 293 292 291 291 291 291 292 293 293 294 295 296
274 274 274 274 274 274 273 272 272 272 272 271 268 267 268 270 272 272 271 267 265 263 264 265 267 269 269 265 260 259 262 263 262 260 259 261 265 268 271 271 272 275 280 284 287 288 289 290 292 293 295 296 298 299 300 301 302 302 302 301 301 301 300 300 300 299 298 298 298 297 297 296 295 294 293 292 291 291 291 291 292 292 293 294 295 297
274 274 274 274 275 275 274 273 273 272 271 268 266 265 267 270 272 272 270 267 264 263 263 263 265 268 269 266 262 261 263 263 261 259 259 262 266 270 272 273 276 280 284 286 287 288 289 291 293 295 296 298 299 300 301 302 303 303 302 301 301 301 300 300 299 299 298 298 298 297 297 296 295 294 292 292 291 291 291 291 292 292 293 295 296 297
274 273 273 274 275 274 273 274 273 272 270 265 263 263 267 271 273 272 270 267 265 263 262 261 262 265 267 266 264 263 264 262 259 258 260 264 268 271 272 276 280 284 286 287 287 288 290 292 294 296 298 299 300 301 302 303 303 303 302 301 301 301 300 300 299 299 298 298 298 298 297 296 295 293 292 292 291 291 291 292 292 293 294 296 297 299
274 274 274 275 275 274 273 272 272 271 268 263 260 261 267 272 274 274 272 269 267 264 262 260 261 263 265 265 264 263 263 261 258 258 260 265 268 271 274 279 284 286 287 288 288 289 291 294 296 297 299 300 300 301 302 303 303 302 301 301 301 301 300 300 299 299 299 299 298 298 297 296 294 293 293 292 292 292 292 292 293 294 296 297 299 300
275 275 276 276 276 274 273 271 270 268 267 263 261 262 268 274 276 276 274 271 268 265 262 261 262 263 263 263 262 262 261 259 258 258 260 263 266 271 278 284 288 289 289 289 290 291 293 295 297 298 299 300 301 302 303 303 303 302 301 300 300 300 300 299 299 299 299 299 298 298 297 295 294 293 293 292 292 292 293 294 295 296 298 300 301 302
276 277 277 278 277 276 273 271 269 267 266 263 262 263 269 274 276 276 274 271 268 265 262 261 262 263 262 260 260 260 260 259 257 256 257 260 266 275 284 289 291 291 290 290 291 293 295 297 298 299 300 301 301 302 303 303 302 301 300 300 299 299 299 299 299 299 299 299 298 297 296 295 294 293 293 293 293 293 294 296 297 299 301 302 303 304
277 278 279 280 279 278 274 272 269 267 266 264 262 263 267 272 274 273 272 270 269 267 264 263 263 262 261 259 259 260 260 258 256 255 257 262 272 283 290 293 293 292 291 291 292 294 296 298 300 300 301 301 302 303 303 303 302 301 300 299 299 299 299 298 298 298 299 298 297 296 295 294 293 293 293 293 294 295 296 298 300 301 303 304 305 305
278 280 282 283 282 280 276 272 269 268 267 264 262 262 266 269 271 270 269 269 269 269 268 267 265 262 259 259 259 260 259 259 258 258 260 269 281 291 294 294 293 292 291 292 294 296 298 300 301 301 301 302 303 304 303 302 301 300 299 299 299 299 299 298 298 298 298 298 297 296 295 294 294 294 295 295 296 298 299 301 302 303 304 305 305 305
281 283 286 286 285 282 277 273 270 268 267 266 264 263 266 269 269 269 269 270 270 269 268 266 264 260 257 256 257 257 258 258 259 261 267 279 290 295 296 294 292 291 292 294 295 298 300 302 302 302 302 303 304 304 303 302 300 299 299 298 298 298 298 298 299 299 299 298 297 297 296 296 296 297 298 299 300 301 302 303 304 305 305 306 306 305
284 286 288 287 286 282 277 273 269 267 268 267 266 266 268 269 270 269 270 270 269 267 265 263 260 257 254 253 253 255 256 257 259 265 276 287 294 297 295 293 291 292 293 295 297 300 302 303 303 303 303 304 304 303 302 301 299 298 298 298 298 299 299 299 299 299 299 299 298 298 298 299 299 300 301 302 303 304 305 305 306 306 306 305 305 304
285 287 287 286 284 280 275 270 267 265 266 267 268 268 270 271 271 271 271 269 267 264 262 260 257 254 251 250 251 252 254 257 263 273 285 293 297 296 294 292 291 292 294 297 299 302 303 304 304 304 304 304 304 302 301 300 298 298 298 298 299 300 300 300 300 300 300 300 300 300 301 302 302 303 304 304 305 305 305 306 305 305 305 304 304 304
286 287 286 285 282 277 272 267 264 263 265 266 268 270 271 273 273 272 270 267 264 262 260 258 254 249 246 247 248 251 255 261 272 282 291 295 296 294 292 291 292 293 296 298 301 303 304 305 305 305 305 304 303 301 299 298 297 297 297 299 300 300 301 301 301 301 302 302 302 303 303 304 304 305 305 305 305 305 305 305 305 304 304 303 303 303
287 287 286 284 279 274 268 265 263 263 264 267 270 272 273 273 272 269 267 265 263 262 261 256 250 245 244 246 249 253 260 271 281 288 294 296 294 292 291 291 293 295 298 300 302 303 304 305 305 305 305 303 301 298 296 294 294 295 296 298 299 300 301 301 302 302 303 303 304 305 305 305 305 305 304 304 304 304 304 304 303 303 302 302 302 302
287 287 285 282 276 270 266 263 263 264 266 269 271 273 273 271 269 267 266 265 265 264 260 254 248 245 246 249 251 256 267 278 287 292 295 295 293 291 291 292 294 297 300 302 303 304 304 305 305 305 303 301 298 295 293 292 292 294 296 298 300 301 301 302 302 303 304 304 305 305 305 305 304 304 303 303 303 303 303 302 302 302 302 301 301 301
286 286 284 280 275 269 266 264 264 265 268 270 272 272 272 271 270 268 268 267 265 262 257 253 250 248 249 249 251 259 272 283 290 294 295 293 291 291 292 294 297 299 302 303 304 305 305 306 306 304 301 298 294 292 291 291 293 296 298 300 301 302 302 302 303 303 304 304 304 304 304 303 302 302 302 302 302 302 302 302 301 301 301 301 301 301
285 284 282 279 275 271 269 267 266 266 268 270 271 272 273 272 272 272 272 268 262 257 254 253 251 250 248 247 252 265 280 289 293 294 294 292 290 291 293 296 299 301 303 304 305 306 307 307 306 303 298 295 291 290 290 292 295 298 300 301 302 302 302 302 302 303 303 303 303 302 302 301 301 301 302 302 302 302 301 301 301 301 301 301 301 301
284 283 281 278 275 273 271 269 267 267 268 270 272 273 274 274 275 276 272 265 259 255 254 253 250 245 243 246 259 276 288 293 295 294 292 291 290 292 295 297 300 302 303 304 305 307 308 307 303 299 295 292 289 289 290 293 296 298 300 300 301 301 301 301 301 301 301 302 301 301 300 300 301 301 302 302 302 302 301 301 300 300 300 300 301 301
283 282 280 277 275 273 271 269 268 268 270 272 273 274 274 274 275 274 269 262 258 256 254 250 243 238 240 252 271 287 293 295 294 292 291 290 291 293 296 298 301 303 304 305 306 308 307 305 300 296 292 290 288 289 291 294 296 298 299 300 300 300 300 300 300 301 301 301 301 300 300 301 301 302 302 302 302 301 301 301 300 300 299 300 300 301
282 280 278 275 273 272 271 269 268 269 271 274 275 274 272 270 269 267 263 258 257 256 254 245 238 237 248 268 285 294 295 294 292 290 289 290 292 295 297 300 302 303 304 306 308 308 306 302 298 294 291 289 289 290 293 295 297 298 298 299 299 300 300 300 301 301 301 301 301 301 301 301 302 302 302 302 301 301 300 300 299 299 299 299 299 300
281 279 276 273 272 271 269 267 266 268 272 275 274 271 266 262 259 258 255 254 255 255 251 242 238 246 267 286 295 298 296 294 291 289 289 291 293 296 299 301 302 304 306 308 308 307 304 299 295 292 291 290 291 293 294 296 297 298 298 298 299 300 300 301 301 302 302 302 302 301 301 301 302 302 302 301 301 300 300 299 299 298 298 298 298 299
281 277 274 272 270 269 266 264 265 269 273 274 272 266 258 253 252 251 250 250 252 251 245 239 242 262 285 297 300 299 296 293 290 289 289 292 295 298 300 302 304 306 308 309 309 306 301 297 293 292 292 292 294 295 297 297 297 297 297 298 299 300 301 301 302 302 302 302 302 302 301 301 301 301 301 301 300 300 299 298 298 297 297 297 297 297
280 277 274 272 269 267 265 264 267 271 274 273 268 258 249 248 248 248 248 249 248 245 238 236 249 277 296 302 302 299 295 291 289 289 291 294 297 300 301 303 305 308 310 310 308 303 299 296 294 293 294 295 296 298 299 299 298 298 298 299 299 300 301 301 302 301 301 301 301 301 301 301 301 301 301 300 300 299 298 297 297 296 295 295 294 294
279 277 275 272 269 267 266 268 272 275 275 270 260 247 243 245 248 249 248 248 245 238 231 233 255 288 302 305 303 298 294 291 290 290 293 296 299 301 303 305 308 310 310 308 305 301 297 295 295 295 297 298 300 300 300 299 299 299 300 300 300 301 301 301 301 301 301 301 301 301 301 301 301 301 300 300 299 298 298 297 296 295 294 294 293 292
277 277 276 274 271 269 270 274 277 278 273 262 247 239 241 246 249 250 249 247 241 233 226 232 261 294 305 306 303 298 294 291 291 292 296 299 301 303 306 308 310 311 309 306 302 298 296 296 296 298 299 301 302 303 302 301 300 300 301 302 303 303 302 302 301 301 301 301 301 301 300 300 300 300 300 299 299 298 297 297 296 296 295 294 293 292
280 281 281 277 274 274 275 278 279 276 265 248 237 238 243 248 250 251 249 243 235 227 223 235 275 304 307 304 300 297 294 292 293 296 299 302 304 306 309 310 311 309 306 303 299 297 297 297 298 300 302 304 305 304 303 302 301 302 303 303 304 305 304 303 302 302 302 302 301 301 301 300 300 300 300 300 299 299 298 298 298 297 296 295 294 293
286 287 285 282 279 279 280 281 277 268 251 237 235 241 246 251 253 251 246 237 227 220 220 248 297 310 308 303 298 295 294 295 297 300 303 306 307 309 310 311 309 307 304 301 299 298 298 299 301 303 305 306 306 306 305 304 303 303 304 305 306 307 307 306 305 304 303 302 302 301 301 301 302 302 302 302 301 300 300 300 299 299 298 296 295 294
289 290 288 288 288 288 287 281 271 255 238 233 237 244 250 254 253 248 240 229 219 215 227 277 306 309 305 302 299 297 297 300 302 305 307 309 310 311 311 310 308 305 303 300 299 299 300 301 303 305 307 307 308 307 306 305 305 306 306 308 309 309 310 308 307 305 304 303 302 302 302 302 303 303 303 303 302 302 302 301 301 299 298 297 296 295
285 287 289 292 294 294 289 278 260 242 233 234 240 247 251 252 248 241 231 220 214 218 249 289 302 303 301 301 301 301 302 304 307 308 309 310 311 312 311 310 308 305 303 301 301 301 302 304 306 307 308 308 308 308 307 308 308 309 310 311 312 313 312 310 308 306 304 304 303 303 303 304 304 305 305 305 304 304 304 302 301 300 298 297 296 295
277 280 284 289 292 291 285 271 252 239 237 239 244 248 249 246 240 232 223 216 217 233 267 288 296 300 302 303 303 304 305 307 308 309 310 311 312 312 311 310 308 306 304 303 303 304 305 307 308 308 309 309 309 309 310 311 312 313 314 315 315 315 313 311 308 307 305 305 305 305 306 306 306 306 306 306 307 306 305 303 301 299 297 296 295 294
269 271 276 281 285 285 278 264 250 243 243 245 246 246 244 240 234 227 222 221 231 251 270 282 292 300 304 306 306 307 308 308 308 309 311 312 313 313 312 310 308 306 305 304 305 306 308 309 309 310 310 310 311 312 313 314 314 315 317 317 317 316 314 311 309 308 308 308 309 309 309 308 307 307 307 307 307 306 304 301 299 296 295 294 293 292
266 267 272 277 281 279 269 257 249 246 245 246 245 243 238 235 231 229 229 236 247 259 269 281 293 302 305 307 308 309 309 309 309 311 312 313 313 313 311 308 306 304 303 304 306 308 310 311 312 312 312 313 315 316 316 316 316 317 318 319 318 316 314 312 310 310 310 311 312 311 310 309 308 307 307 306 305 304 302 299 296 293 291 291 290 290
267 268 273 277 277 271 259 250 245 242 241 242 241 237 233 233 235 239 243 248 254 262 272 285 297 303 306 308 309 309 309 309 311 313 313 313 312 310 307 304 302 301 301 304 307 311 314 315 316 315 315 316 317 317 317 316 317 318 319 319 319 317 315 314 313 312 313 313 313 312 310 308 307 306 305 304 303 302 300 297 293 290 288 287 288 288
270 272 274 275 270 262 252 245 239 237 237 237 234 231 230 237 247 253 254 256 260 267 279 290 299 306 309 310 310 309 309 311 313 314 312 311 309 306 303 300 299 300 303 307 312 315 317 318 318 317 316 317 317 317 316 316 317 318 319 320 319 318 316 315 315 315 315 314 313 311 308 306 304 303 302 301 300 299 297 294 290 287 285 284 285 286